Bydgoszcz Ignacy Jan Pade, Poland

6:26 AM CEST on September 25, 2017 (GMT +0200)
Szwederowo

Weather History for EPBY - July, 2017

Change the Weather History Date:

Monday, July 17, 2017

  Actual Average Record
Temperature  
Mean Temperature 62 °F -  
Max Temperature 71 °F - - ()
Min Temperature 53 °F - - ()
Degree Days  
Heating Degree Days 3    
Growing Degree Days 12 (Base 50)    
Moisture  
Dew Point 53 °F    
Average Humidity 69    
Maximum Humidity 94    
Minimum Humidity 46    
Precipitation  
Precipitation 0.00 in - - ()
Sea Level Pressure  
Sea Level Pressure 30.08 in    
Wind  
Wind Speed 9 mph ()    
Max Wind Speed 16 mph    
Max Gust Speed -    
Visibility 5.8 miles    
Events Rain    
T = Trace of Precipitation, MM = Missing Value Source: Averaged Metar Reports

Daily Weather History Graph

Daily Weather History Graph

Search for Another Location

Airport or City:

Trip Planner

Search our weather history database for the weather conditions in past years. The results will help you decide how hot, cold, wet, or windy it might be!

Date:

Astronomy

Jul. 17, 2017 Rise Set
Actual Time 4:42 AM CEST 9:04 PM CEST
Civil Twilight 3:55 AM CEST 9:51 PM CEST
Nautical Twilight 2:43 AM CEST 11:02 PM CEST
Astronomical Twilight 1:26 AM CEST 12:21 AM CEST
Moon 12:21 AM CEST (7/17) 2:02 PM CEST (7/17)
Length of Visible Light 17h 56m
Length of Day
16h 21m
Last Quarter, 43% of the Moon is Illuminated
Jul 17
Last Quarter
Jul 23
New
Jul 30
First Quarter
Aug 7
Full
Aug 15
Last Quarter

Hourly Weather History & Observations

Time (CEST) Temp. Dew Point Humidity Pressure Visibility Wind Dir Wind Speed Gust Speed Precip Events Conditions
12:00 AM 64.4 °F 55.4 °F 73% 30.09 in 6.2 mi West 8.1 mph - N/A   Mostly Cloudy
12:30 AM 60.8 °F 57.2 °F 88% 30.09 in 6.2 mi West 5.8 mph - N/A Rain Light Rain
1:00 AM 62.6 °F 57.2 °F 82% 30.06 in 6.2 mi SW 3.5 mph - N/A Rain Light Rain
1:30 AM 62.6 °F 57.2 °F 82% 30.06 in 6.2 mi WSW 10.4 mph - N/A Rain Light Rain
2:30 AM 59.0 °F 57.2 °F 94% 30.06 in 5.0 mi SW 9.2 mph - N/A Rain Light Rain
3:00 AM 59.0 °F 57.2 °F 94% 30.06 in - SW 9.2 mph - N/A Rain Light Rain
3:30 AM 59.0 °F 57.2 °F 94% 30.04 in 3.1 mi SW 11.5 mph - N/A Rain Light Rain
4:30 AM 59.0 °F 57.2 °F 94% 30.04 in 3.1 mi SW 10.4 mph - N/A Rain Light Rain
6:30 AM 60.8 °F 59.0 °F 94% 30.04 in 6.2 mi West 8.1 mph - N/A   Mostly Cloudy
7:00 AM 60.8 °F 59.0 °F 94% 30.04 in 6.2 mi WSW 8.1 mph - N/A   Mostly Cloudy
8:00 AM 62.6 °F 59.0 °F 88% 30.04 in 6.2 mi West 9.2 mph - N/A   Mostly Cloudy
9:00 AM 62.6 °F 59.0 °F 88% 30.06 in 6.2 mi West 8.1 mph - N/A   Mostly Cloudy
9:30 AM 62.6 °F 59.0 °F 88% 30.06 in 6.2 mi WNW 10.4 mph - N/A   Mostly Cloudy
10:00 AM 64.4 °F 57.2 °F 77% 30.06 in 6.2 mi WNW 9.2 mph - N/A   Mostly Cloudy
10:30 AM 66.2 °F 55.4 °F 68% 30.06 in 6.2 mi WNW 13.8 mph - N/A   Scattered Clouds
11:00 AM 66.2 °F 55.4 °F 68% 30.06 in 6.2 mi NW 15.0 mph - N/A   Scattered Clouds
11:30 AM 68.0 °F 53.6 °F 60% 30.06 in 6.2 mi NW 13.8 mph - N/A   Scattered Clouds
12:00 PM 68.0 °F 53.6 °F 60% 30.06 in 6.2 mi NW 16.1 mph - N/A   Scattered Clouds
12:30 PM 68.0 °F 53.6 °F 60% 30.06 in 6.2 mi WNW 15.0 mph - N/A   Scattered Clouds
1:00 PM 68.0 °F 53.6 °F 60% 30.06 in 6.2 mi NW 13.8 mph - N/A   Scattered Clouds
2:00 PM 69.8 °F 48.2 °F 46% 30.09 in 6.2 mi WNW 16.1 mph - N/A   Scattered Clouds
3:00 PM 69.8 °F 48.2 °F 46% 30.09 in - NW 15.0 mph - N/A   Clear
3:30 PM 69.8 °F 50.0 °F 49% 30.09 in - WNW 13.8 mph - N/A   Clear
4:00 PM 69.8 °F 50.0 °F 49% 30.09 in - WNW 12.7 mph - N/A   Clear
4:30 PM 68.0 °F 48.2 °F 49% 30.09 in - WNW 12.7 mph - N/A   Clear
5:00 PM 71.6 °F 50.0 °F 46% 30.09 in - NW 13.8 mph - N/A   Clear
5:30 PM 69.8 °F 48.2 °F 46% 30.09 in - NW 13.8 mph - N/A   Clear
6:00 PM 68.0 °F 48.2 °F 49% 30.09 in - NW 13.8 mph - N/A   Clear
6:30 PM 68.0 °F 48.2 °F 49% 30.09 in - WNW 13.8 mph - N/A   Clear
7:00 PM 68.0 °F 50.0 °F 52% 30.09 in - NW 11.5 mph - N/A   Clear
7:30 PM 68.0 °F 50.0 °F 52% 30.09 in - NW 10.4 mph - N/A   Clear
8:00 PM 66.2 °F 50.0 °F 56% 30.09 in - NW 11.5 mph - N/A   Clear
8:30 PM 64.4 °F 50.0 °F 59% 30.12 in - NW 5.8 mph - N/A   Clear
9:00 PM 64.4 °F 50.0 °F 59% 30.12 in - NNW 6.9 mph - N/A   Clear
9:30 PM 62.6 °F 50.0 °F 63% 30.12 in - NNW 6.9 mph - N/A   Clear
10:00 PM 60.8 °F 50.0 °F 68% 30.12 in - NW 4.6 mph - N/A   Clear
10:30 PM 59.0 °F 50.0 °F 72% 30.12 in - West 2.3 mph - N/A   Clear
11:00 PM 53.6 °F 50.0 °F 88% 30.12 in - Variable 2.3 mph - N/A   Clear
11:30 PM 53.6 °F 50.0 °F 88% 30.15 in - WSW 3.5 mph - N/A   Clear